Regional Weather Roundup
Issued by NWS

Home | Current Version | Previous Version | Graphics & Text | Print | Product List | Glossary On
Versions: 1 2 3 4 5 6 7 8 9 10 11 12 13 14 15 16 17 18 19 20 21 22 23 24 25 26 27 28 29 30 31 32 33 34 35 36 37 38 39 40 41 42 43 44 45 46 47 48 49 50
000
ASUS45 KCYS 270210
RWRWY

WYOMING REGIONAL WEATHER ROUNDUP
NATIONAL WEATHER SERVICE CHEYENNE WY
800 PM MDT FRI MAY 26 2017

NOTE:  "FAIR" INDICATES FEW OR NO CLOUDS BELOW 12,000 FEET
WITH NO SIGNIFICANT WEATHER AND/OR OBSTRUCTIONS TO VISIBILITY.

WYZ001-270300-
YELLOWSTONE NATIONAL PARK

CITY           SKY/WX    TMP DP  RH WIND       PRES   REMARKS
LK YELLOWSTONE   N/A     37  36  96 CALM      30.07R
W YELLOWSTONE  NOT AVBL

$$
WYZ002>013-054>058-071-098>099-270300-
NORTHERN WYOMING

CITY           SKY/WX    TMP DP  RH WIND       PRES   REMARKS
JACKSON        MOCLDY    45  37  76 NE10      30.02R
CODY           FAIR      46  39  76 SW9       30.02S
GREYBULL       CLOUDY    53  41  63 CALM      29.98R
WORLAND        CLOUDY    51  41  68 NW7       29.99R
SHERIDAN       CLOUDY    48  44  86 SW7       30.00R
BUFFALO        LGT RAIN  46  41  82 NW8       30.02R
GILLETTE       CLOUDY    49  46  90 NW9       29.98R
HULETT         CLOUDY    54  41  62 SW5       29.98R
NEWCASTLE      RAIN      46  43  87 CALM      29.98R

$$
WYZ014>020-022>026-101>103-270300-
CENTRAL WYOMING

CITY           SKY/WX    TMP DP  RH WIND       PRES   REMARKS
BIG PINEY      FAIR      47  31  53 N17       30.00R
PINEDALE       FAIR      45  32  61 NW15      30.01R
DUBOIS         LGT RAIN  37  34  87 S7        30.02R WCI  32
LANDER         CLOUDY    43  41  93 W5        30.01R
RIVERTON       CLOUDY    46  40  79 NE8       30.01R
CASPER         MOCLDY    47  45  93 N10       29.97R
DOUGLAS        FAIR      45  42  89 SE7       29.96F

$$
WYZ021-027>030-104>119-270300-
SOUTHERN WYOMING

CITY           SKY/WX    TMP DP  RH WIND       PRES   REMARKS
EVANSTON       FAIR      50  30  46 W14       30.02R
KEMMERER         N/A     46  30  53 W20       30.01R
FORT BRIDGER   FAIR      52  31  44 NW13G18   30.03R
ROCK SPRINGS   FAIR      53  29  39 NW18      29.97R
DIXON          RAIN      47  41  79 CALM      30.07R
RAWLINS        LGT RAIN  45  38  76 SW7       30.02R
SARATOGA       RAIN      43  43 100 CALM      30.07R
LARAMIE        LGT RAIN  42  37  82 N20G26    30.03R
CHEYENNE       CLOUDY    47  44  90 N14       29.97R
TORRINGTON     LGT RAIN  49  46  90 NE18      29.95R
PINE BLUFFS    CLOUDY    46  46 100 N22G32    29.93R THUNDER

$$



USA.gov is the U.S. government's official web portal to all federal, state and local government web resources and services.